EW6498 Weather Reports


time (UTC)temp
C
wind
direction
speed
KPH
gust
KPH
rain 1hr
cm
rain 24hr
cm
rain mn
cm
humidity
%
barometer
mb
20260510130516 13 270 3.2 6.4 0.00 0.38 0.03 86 1011.8
20260510125517 13 270 3.2 6.4 0.00 0.38 0.03 86 1011.8
20260510124537 12 293 3.2 11.3 0.00 0.38 0.03 86 1011.9
20260510123516 12 270 4.8 8.0 0.00 0.38 0.03 86 1011.8
20260510122517 12 270 3.2 6.4 0.00 0.38 0.03 86 1011.7
20260510121516 12 270 3.2 8.0 0.00 0.38 0.03 86 1011.4
20260510120517 12 293 3.2 6.4 0.00 0.38 0.03 86 1011.3
20260510115516 12 0.0 3.2 0.00 0.38 0.03 86 1011.1
20260510114516 12 0.0 3.2 0.03 0.38 0.03 86 1011.0
20260510113536 12 0.0 3.2 0.03 0.38 0.03 86 1010.8
20260510112516 11 0.0 1.6 0.03 0.38 0.03 87 1010.7
20260510111516 11 0.0 4.8 0.03 0.38 0.03 86 1010.6
20260510110516 11 23 3.2 6.4 0.03 0.38 0.03 86 1010.6
20260510105516 11 0.0 1.6 0.03 0.38 0.03 87 1010.2
20260510104516 11 0.0 1.6 0.00 0.36 0.00 87 1010.5
20260510103516 11 0.0 3.2 0.00 0.36 0.00 87 1010.6
20260510102516 11 0.0 1.6 0.00 0.36 0.00 86 1010.4
20260510101516 11 0.0 0.0 0.00 0.36 0.00 86 1010.3
20260510100516 11 0.0 3.2 0.00 0.36 0.00 86 1010.0
20260510095516 11 0.0 3.2 0.00 0.36 0.00 86 1009.8
20260510094516 11 0.0 3.2 0.00 0.36 0.00 87 1009.7
20260510093516 11 0.0 3.2 0.00 0.36 0.00 87 1009.7
20260510092516 11 0.0 3.2 0.00 0.36 0.00 87 1010.0
20260510091516 11 270 1.6 4.8 0.00 0.36 0.00 87 1009.8
20260510090536 11 0.0 3.2 0.00 0.36 0.00 86 1009.8
20260510085516 11 0.0 3.2 0.00 0.36 0.00 86 1009.8
20260510084516 11 0.0 4.8 0.00 0.36 0.00 86 1009.8
20260510083516 11 0.0 0.0 0.00 0.36 0.00 86 1009.9
20260510082516 11 0.0 0.0 0.00 0.36 0.00 87 1010.1
20260510081516 11 0.0 0.0 0.00 0.36 0.00 86 1010.3
20260510080516 11 0.0 0.0 0.00 0.36 0.00 86 1010.3
20260510075516 11 0.0 1.6 0.00 0.36 0.00 86 1010.3
20260510074516 11 0.0 3.2 0.00 0.36 0.00 87 1010.4
20260510073536 11 45 1.6 4.8 0.00 0.36 0.00 86 1010.3
20260510072516 11 23 1.6 4.8 0.00 0.36 0.00 86 1010.5
20260510071516 11 225 3.2 9.7 0.00 0.36 0.00 86 1010.3
20260510070516 11 0.0 3.2 0.00 0.36 0.00 86 1009.6
20260510065516 11 0.0 0.0 0.00 0.36 0.00 86 1009.6
20260510064516 11 0.0 0.0 0.00 0.36 0.00 86 1009.7
20260510063516 11 0.0 0.0 0.00 0.36 0.00 86 1009.8
20260510062516 11 0.0 0.0 0.00 0.36 0.00 87 1009.9
20260510061516 11 0.0 0.0 0.00 0.36 0.00 87 1010.0
20260510060516 11 0.0 1.6 0.00 0.36 0.00 87 1010.0
20260510055516 11 0.0 1.6 0.00 0.36 0.00 87 1010.2
20260510054516 11 0.0 0.0 0.00 0.36 0.00 86 1010.0
20260510053536 10 0.0 0.0 0.00 0.36 0.00 87 1009.7
20260510052536 10 0.0 1.6 0.00 0.36 0.00 87 1009.6
20260510051516 9 0.0 0.0 0.00 0.36 0.00 87 1009.6
20260510050516 9 0.0 0.0 0.00 0.36 0.00 87 1009.6
20260510045516 9 0.0 0.0 0.00 0.36 0.00 87 1009.7
20260510044516 8 0.0 0.0 0.00 0.36 0.00 88 1009.6
20260510043515 8 0.0 0.0 0.00 0.36 0.00 88 1009.7
20260510042516 8 0.0 0.0 0.00 0.36 0.00 88 1009.7
20260510041516 9 0.0 0.0 0.00 0.36 0.00 88 1009.7
20260510040515 9 0.0 0.0 0.00 0.36 0.00 88 1009.7
20260510035516 9 0.0 0.0 0.00 0.36 0.36 88 1009.7
20260510034536 9 0.0 0.0 0.00 0.36 0.36 88 1009.7
20260510033516 10 0.0 0.0 0.00 0.36 0.36 88 1009.6
20260510032556 10 0.0 0.0 0.00 0.36 0.36 88 1009.5
20260510031516 10 0.0 0.0 0.00 0.36 0.36 88 1009.5
20260510030516 10 0.0 0.0 0.00 0.36 0.36 88 1009.4
20260510025516 10 0.0 0.0 0.00 0.36 0.36 87 1009.4
20260510024516 11 0.0 0.0 0.00 0.36 0.36 88 1009.3
20260510023516 11 0.0 0.0 0.00 0.36 0.36 88 1009.3
20260510022516 11 0.0 1.6 0.00 0.36 0.36 87 1009.2
20260510021516 11 0.0 0.0 0.00 0.36 0.36 87 1009.2
20260510020656 11 0.0 1.6 0.00 0.36 0.36 87 1009.2
20260510015516 12 0.0 3.2 0.00 0.36 0.36 87 1009.2
20260510014516 12 0.0 4.8 0.00 0.36 0.36 87 1009.2
20260510013516 12 225 1.6 4.8 0.00 0.36 0.36 87 1009.2
20260510012516 12 0.0 1.6 0.00 0.36 0.36 87 1009.2
20260510011516 12 0.0 1.6 0.00 0.36 0.36 87 1009.1
20260510010516 12 0.0 1.6 0.00 0.36 0.36 87 1008.9
20260510005516 12 0.0 1.6 0.00 0.36 0.36 87 1008.8
20260510004516 12 0.0 3.2 0.00 0.36 0.36 87 1008.8
20260510003516 12 0.0 3.2 0.00 0.36 0.36 86 1008.5
20260510002556 12 0.0 3.2 0.00 0.36 0.36 86 1008.5
20260510001536 13 0.0 0.0 0.00 0.36 0.36 85 1008.4
20260510000516 13 0.0 1.6 0.00 0.36 0.36 85 1008.2
20260509235516 13 0.0 3.2 0.00 0.36 0.36 85 1008.1
20260509234516 13 0.0 1.6 0.00 0.36 0.36 84 1008.2
20260509233516 13 225 1.6 4.8 0.00 0.36 0.36 84 1008.2
20260509232516 14 0.0 0.0 0.00 0.36 0.36 83 1008.1
20260509231516 14 0.0 1.6 0.00 0.36 0.36 83 1008.1
20260509230516 14 248 1.6 4.8 0.00 0.36 0.36 82 1008.0
20260509225536 15 0.0 4.8 0.00 0.36 0.36 82 1007.9
20260509224516 15 225 1.6 4.8 0.00 0.36 0.36 81 1008.0
20260509223515 15 203 3.2 8.0 0.00 0.36 0.36 81 1008.2
20260509222536 15 248 1.6 4.8 0.00 0.36 0.36 83 1008.3
20260509221516 14 203 3.2 9.7 0.00 0.36 0.36 82 1008.3
20260509220516 14 270 3.2 4.8 0.00 0.36 0.36 82 1008.3
20260509215516 15 248 3.2 4.8 0.00 0.36 0.36 81 1008.2
20260509214536 15 248 3.2 4.8 0.00 0.36 0.36 81 1008.3
20260509213515 15 225 1.6 6.4 0.00 0.36 0.36 83 1008.2
20260509212515 13 293 3.2 6.4 0.00 0.36 0.36 84 1008.2
20260509211515 13 293 1.6 4.8 0.00 0.36 0.36 84 1008.6
20260509210516 13 270 3.2 6.4 0.00 0.36 0.36 84 1008.7
20260509205536 13 248 4.8 9.7 0.00 0.36 0.36 84 1008.7
20260509204515 13 270 3.2 6.4 0.00 0.36 0.36 84 1008.8
20260509203515 13 270 3.2 4.8 0.00 0.36 0.36 85 1008.6
20260509202515 13 270 3.2 6.4 0.03 0.36 0.36 85 1008.6
20260509201515 13 248 1.6 3.2 0.05 0.36 0.36 85 1008.6
20260509200536 13 248 1.6 4.8 0.05 0.36 0.36 86 1008.6
20260509195556 13 270 3.2 4.8 0.05 0.36 0.36 86 1008.9
20260509194515 13 135 1.6 3.2 0.08 0.36 0.36 86 1009.0
20260509193515 12 0.0 1.6 0.08 0.36 0.36 87 1009.1
20260509192515 12 203 1.6 6.4 0.08 0.33 0.33 86 1009.5
20260509191535 13 203 3.2 6.4 0.05 0.30 0.30 86 1009.8
20260509190515 13 248 3.2 4.8 0.05 0.30 0.30 86 1010.1
20260509185515 13 270 1.6 6.4 0.05 0.30 0.30 86 1009.8
20260509184515 13 270 3.2 6.4 0.05 0.28 0.28 85 1010.1
20260509183535 13 270 3.2 6.4 0.08 0.28 0.28 86 1010.1
20260509182515 13 270 4.8 8.0 0.10 0.25 0.25 85 1010.1
20260509181517 13 248 4.8 8.0 0.15 0.25 0.25 85 1010.1
20260509180517 13 270 3.2 8.0 0.20 0.25 0.25 86 1010.0
20260509175517 13 270 1.6 4.8 0.20 0.25 0.25 86 1010.0
20260509174517 13 293 1.6 4.8 0.20 0.23 0.23 86 1010.0
20260509173517 13 0.0 0.0 0.18 0.20 0.20 86 1009.7
20260509172537 13 0.0 3.2 0.15 0.15 0.15 85 1009.9
20260509171517 13 248 3.2 8.0 0.10 0.10 0.10 85 1010.2
20260509170517 14 270 4.8 8.0 0.05 0.05 0.05 85 1010.2
20260509165517 14 270 4.8 9.7 0.05 0.05 0.05 84 1010.1
20260509164517 14 270 6.4 14.5 0.03 0.03 0.03 84 1010.0
20260509163517 14 248 4.8 9.7 0.03 0.03 0.03 84 1010.1
20260509162517 14 270 4.8 9.7 0.00 0.00 0.00 83 1010.2
20260509161517 14 270 4.8 11.3 0.00 0.00 0.00 83 1010.2
20260509160537 14 270 6.4 9.7 0.00 0.00 0.00 83 1010.3
20260509155517 14 225 3.2 9.7 0.00 0.00 0.00 84 1010.3
20260509154517 14 203 1.6 4.8 0.00 0.00 0.00 84 1010.3
20260509153537 14 225 3.2 6.4 0.00 0.00 0.00 84 1010.4
20260509152517 14 248 3.2 4.8 0.00 0.00 0.00 83 1010.3
20260509151517 14 225 1.6 6.4 0.00 0.00 0.00 82 1010.2
20260509150517 14 0.0 1.6 0.00 0.00 0.00 82 1010.1
20260509145517 14 225 1.6 3.2 0.00 0.00 0.00 82 1010.5
20260509144517 14 248 1.6 4.8 0.00 0.00 0.00 81 1010.4
20260509143517 13 248 1.6 4.8 0.00 0.00 0.00 81 1010.4
20260509142537 13 225 3.2 8.0 0.00 0.00 0.00 80 1010.4
20260509141517 13 270 1.6 4.8 0.00 0.00 0.00 81 1010.4
20260509140517 13 225 3.2 8.0 0.00 0.00 0.00 80 1010.2
20260509135517 13 248 1.6 4.8 0.00 0.00 0.00 80 1010.2
20260509134537 13 225 1.6 6.4 0.00 0.00 0.00 79 1010.0
20260509133517 13 225 3.2 8.0 0.00 0.00 0.00 80 1010.1
20260509132637 13 270 1.6 4.8 0.00 0.00 0.00 80 1010.1
20260509131517 13 225 3.2 6.4 0.00 0.00 0.00 79 1010.3